Flag for United Kingdom Weather past 2 weeks in Darlington, England, United Kingdom

Now
52 °F

Passing clouds.


Feels Like: 47 °F
Forecast: N/A
Wind: 13 mph from South

Location: Tees-Side

Current Time: Mar 6, 2015 at 4:27:03 PM

Latest Report: Mar 6, 2015 at 3:50 PM


Visibility: N/A

Pressure: 30.18 "Hg

Humidity: 58%

Dew point: 37 °F

Location of DarlingtonLocation

Historic Weather in Darlington — Graph

°F

Darlington temperature yesterday

Maximum temperature yesterday: 50 °F (at 12:50 PM)
Minimum temperature yesterday: 43 °F (at 5:50 AM)
Average temperature yesterday: 47 °F

Past Weeks' High & Low Weather Summary

 TemperatureHumidityPressure
High52 °F (Feb 26, 9:20 AM)93% (Feb 20, 7:20 AM)30.54 "Hg (Feb 20, 7:20 AM)
Low30 °F (Feb 27, 6:50 AM)40% (Feb 26, 3:20 PM)28.88 "Hg (Feb 23, 6:20 PM)
Average42 °F72%29.69 "Hg
* Reported Feb 19 3:20 PM — Mar 6 3:20 PM, Darlington, Weather by CustomWeather, © 2015

Note: Actual official high and low records may vary slightly from our data, if they occured in-between our weather recording intervals... More about our weather records

Advertising

Darlington weather history for previous 24 hours

 ConditionsComfort  
Time TempWeatherWind HumidityBarometerVisibility
3:20 PM
Fri, Mar 6
52 °FPassing clouds.17 mph58%30.21 "HgN/A
2:50 PM50 °FPassing clouds.21 mph62%30.21 "HgN/A
2:20 PM50 °FPassing clouds.20 mph62%30.24 "HgN/A
1:50 PM50 °FPassing clouds.22 mph62%30.24 "HgN/A
1:20 PM50 °FScattered clouds.22 mph62%30.27 "HgN/A
12:50 PM50 °FScattered clouds.17 mph62%30.30 "HgN/A
12:20 PM50 °FScattered clouds.21 mph58%30.30 "HgN/A
11:50 AM50 °FPartly sunny.21 mph58%30.33 "HgN/A
11:20 AM50 °FScattered clouds.26 mph58%30.33 "HgN/A
10:50 AM48 °FPartly sunny.12 mph62%30.33 "HgN/A
10:20 AM48 °FScattered clouds.13 mph62%30.33 "HgN/A
9:50 AM46 °FPartly sunny.16 mph71%30.33 "HgN/A
9:20 AM46 °FScattered clouds.22 mph66%30.36 "HgN/A
8:50 AM46 °FScattered clouds.18 mph66%30.36 "HgN/A
8:20 AM46 °FPartly sunny.17 mph66%30.39 "HgN/A
7:50 AM46 °FPartly sunny.15 mph66%30.39 "HgN/A
7:20 AM46 °FScattered clouds.12 mph66%30.39 "HgN/A
6:50 AM45 °FPassing clouds.25 mph71%30.36 "HgN/A
6:20 AM45 °FPassing clouds.15 mph71%30.39 "HgN/A
5:50 AM45 °FPassing clouds.15 mph71%30.39 "HgN/A
9:50 PM
Thu, Mar 5
45 °FPassing clouds.15 mph81%30.45 "HgN/A
9:20 PM46 °FPassing clouds.14 mph76%30.45 "HgN/A
8:50 PM46 °FPassing clouds.13 mph76%30.48 "HgN/A
8:20 PM46 °FPassing clouds.12 mph76%30.48 "HgN/A
7:50 PM46 °FPassing clouds.12 mph71%30.48 "HgN/A
7:20 PM46 °FPassing clouds.13 mph71%30.48 "HgN/A
6:50 PM46 °FPassing clouds.13 mph71%30.48 "HgN/A
6:20 PM46 °FPassing clouds.8 mph71%30.48 "HgN/A
5:50 PM48 °FPassing clouds.12 mph66%30.45 "HgN/A
5:20 PM48 °FScattered clouds.12 mph66%30.45 "HgN/A
4:50 PM50 °FScattered clouds.13 mph62%30.45 "HgN/A
4:20 PM50 °FPartly sunny.16 mph58%30.45 "HgN/A
Weather by CustomWeather, © 2015

See weather overviewHow to use our weather pages